Location: İstanbul
(41.0082°N, 28.9784°E)
Time: 20:34:01
(UTC+02:00)

Oscar 11 - Pass Details

Date: 23 October 2021
Orbit: 614 x 623 km, 97.6° (Epoch: 30 November)

Event Time Altitude Azimuth Distance (km) Brightness Sun altitude
Rises 05:44:31 0° 26° (NNE) 2,904 10.9 -19.5°
Reaches altitude 10° 05:47:05 10° 40° (NE) 1,994 10.2 -19.0°
Maximum altitude 05:50:36 24° 94° (E) 1,298 9.6 -18.4°
Drops below altitude 10° 05:54:07 10° 149° (SSE) 1,986 10.1 -17.7°
Sets 05:56:38 0° 163° (SSE) 2,888 10.7 -17.2°
